Flag for Argentina Weather past 2 weeks in Tucumán, Tucumán, Argentina

Now
77 °F

Clear.


Feels Like: 78 °F
Forecast: 71 / 102 °F
Wind: 9 mph from North

Location: Tucuman Aerodrome

Current Time: Oct 26, 2014 at 1:42:37 AM

Latest Report: Oct 26, 2014 at 1:00 AM


Visibility: 5 mi

Pressure: 29.77 "Hg

Humidity: 42%

Dew point: 52 °F

Location of TucumánLocation

Historic Weather in Tucumán — Graph

°F

Tucumán temperature yesterday

Maximum temperature yesterday: 104 °F (at 2:00 PM)
Minimum temperature yesterday: 68 °F (at 7:00 AM)
Average temperature yesterday: 87 °F

Past Weeks' High & Low Weather Summary

 TemperatureHumidityPressure
High104 °F (Oct 25, 2:00 PM)94% (Oct 19, 1:00 AM)30.18 "Hg (Oct 19, 1:00 AM)
Low50 °F (Oct 12, 6:00 AM)17% (Oct 25, 3:00 PM)29.50 "Hg (Oct 18, 4:00 PM)
Average77 °F59%29.92 "Hg
* Reported Midnight between Oct 10 and Oct 11 — Midnight between Oct 25 and Oct 26, Tucumán, Weather by CustomWeather, © 2014

Note: Actual official high and low records may vary slightly from our data, if they occured in-between our weather recording intervals... More about our weather records

Advertising

Tucumán weather history for previous 24 hours

 ConditionsComfort  
Time TempWeatherWind HumidityBarometerVisibility
12:00 AM
Oct 26
79 °FClear.9 mph39%29.77 "Hg5 mi
11:00 PM
Oct 25
88 °FClear.9 mph33%29.77 "Hg10 mi
10:00 PM84 °FClear.5 mph37%29.74 "Hg10 mi
9:00 PM90 °FClear.12 mph26%29.74 "Hg10 mi
8:00 PM93 °FClear.15 mph23%29.71 "Hg4 mi
7:00 PM99 °FDuststorm.18 mph19%29.71 "Hg3 mi
6:00 PM102 °FDuststorm.21 mph17%29.68 "Hg3 mi
5:00 PM102 °FClear.23 mph18%29.71 "Hg4 mi
4:00 PM104 °FClear.21 mph17%29.74 "Hg3 mi
3:00 PM102 °FClear.15 mph17%29.80 "Hg4 mi
2:00 PM104 °FClear.16 mph19%29.83 "Hg4 mi
1:00 PM100 °FClear.16 mph22%29.86 "Hg4 mi
12:00 PM95 °FClear.5 mph30%29.89 "Hg4 mi
11:00 AM91 °FClear.3 mph36%29.92 "Hg5 mi
10:00 AM86 °FClear.3 mph46%29.92 "Hg5 mi
9:00 AM81 °FClear.5 mph51%29.92 "Hg5 mi
8:00 AM72 °FClear.5 mph65%29.92 "Hg5 mi
7:00 AM68 °FClear.7 mph73%29.92 "Hg5 mi
6:00 AM70 °FClear.7 mph69%29.92 "Hg6 mi
5:00 AM73 °FClear.6 mph57%29.92 "Hg6 mi
4:00 AM73 °FClear.2 mph57%29.92 "Hg10 mi
3:00 AM73 °FClear.7 mph61%29.89 "Hg10 mi
2:00 AM77 °FClear.9 mph54%29.92 "Hg10 mi
1:00 AM75 °FClear.9 mph54%29.92 "Hg10 mi
Weather by CustomWeather, © 2014

See weather overviewHow to use our weather pages